Year,Month,Day,Hour,Minute,Value (Times are PST for temperature in C)
2014,07,13,00,00,20.90
2014,07,13,00,01,20.90
2014,07,13,00,02,20.90
2014,07,13,00,03,20.90
2014,07,13,00,04,20.80
2014,07,13,00,05,20.80
2014,07,13,00,06,20.80
2014,07,13,00,07,20.80
2014,07,13,00,08,20.80
2014,07,13,00,09,20.70
2014,07,13,00,10,20.70
2014,07,13,00,11,20.70
2014,07,13,00,12,20.70
2014,07,13,00,13,20.70
2014,07,13,00,14,20.70
2014,07,13,00,15,20.60
2014,07,13,00,16,20.60
2014,07,13,00,17,20.60
2014,07,13,00,18,20.60
2014,07,13,00,19,20.60
2014,07,13,00,20,20.50
2014,07,13,00,21,20.50
2014,07,13,00,22,20.50
2014,07,13,00,23,20.40
2014,07,13,00,24,20.40
2014,07,13,00,25,20.40
2014,07,13,00,26,20.40
2014,07,13,00,27,20.40
2014,07,13,00,28,20.40
2014,07,13,00,29,20.30
2014,07,13,00,30,20.30
2014,07,13,00,31,20.30
2014,07,13,00,32,20.30
2014,07,13,00,33,20.30
2014,07,13,00,34,20.30
2014,07,13,00,35,20.30
2014,07,13,00,36,20.30
2014,07,13,00,37,20.30
2014,07,13,00,38,20.30
2014,07,13,00,39,20.30
2014,07,13,00,40,20.30
2014,07,13,00,41,20.20
2014,07,13,00,42,20.20
2014,07,13,00,43,20.20
2014,07,13,00,44,20.20
2014,07,13,00,45,20.20
2014,07,13,00,46,20.20
2014,07,13,00,47,20.20
2014,07,13,00,48,20.10
2014,07,13,00,49,20.10
2014,07,13,00,50,20.10
2014,07,13,00,51,20.10
2014,07,13,00,52,20.10
2014,07,13,00,53,20.10
2014,07,13,00,54,20.10
2014,07,13,00,55,20.10
2014,07,13,00,56,20.00
2014,07,13,00,57,20.00
2014,07,13,00,58,20.00
2014,07,13,00,59,19.90
2014,07,13,01,00,19.90
2014,07,13,01,01,19.90
2014,07,13,01,02,19.90
2014,07,13,01,03,19.90
2014,07,13,01,04,19.90
2014,07,13,01,05,19.90
2014,07,13,01,06,19.90
2014,07,13,01,07,19.90
2014,07,13,01,08,19.90
2014,07,13,01,09,19.90
2014,07,13,01,10,19.80
2014,07,13,01,11,19.80
2014,07,13,01,12,19.80
2014,07,13,01,13,19.80
2014,07,13,01,14,19.70
2014,07,13,01,15,19.70
2014,07,13,01,16,19.70
2014,07,13,01,17,19.70
2014,07,13,01,18,19.70
2014,07,13,01,19,19.70
2014,07,13,01,20,19.60
2014,07,13,01,21,19.60
2014,07,13,01,22,19.60
2014,07,13,01,23,19.60
2014,07,13,01,24,19.50
2014,07,13,01,25,19.50
2014,07,13,01,26,19.40
2014,07,13,01,27,19.40
2014,07,13,01,28,19.40
2014,07,13,01,29,19.40
2014,07,13,01,30,19.30
2014,07,13,01,31,19.30
2014,07,13,01,32,19.30
2014,07,13,01,33,19.30
2014,07,13,01,34,19.30
2014,07,13,01,35,19.30
2014,07,13,01,36,19.30
2014,07,13,01,37,19.30
2014,07,13,01,38,19.20
2014,07,13,01,39,19.20
2014,07,13,01,40,19.20
2014,07,13,01,41,19.20
2014,07,13,01,42,19.20
2014,07,13,01,43,19.20
2014,07,13,01,44,19.10
2014,07,13,01,45,19.10
2014,07,13,01,46,19.10
2014,07,13,01,47,19.10
2014,07,13,01,48,19.10
2014,07,13,01,49,19.10
2014,07,13,01,50,19.10
2014,07,13,01,51,19.10
2014,07,13,01,52,19.00
2014,07,13,01,53,19.00
2014,07,13,01,54,19.00
2014,07,13,01,55,19.00
2014,07,13,01,56,19.00
2014,07,13,01,57,19.00
2014,07,13,01,58,19.00
2014,07,13,01,59,19.00
2014,07,13,02,00,19.00
2014,07,13,02,01,18.90
2014,07,13,02,02,18.90
2014,07,13,02,03,18.90
2014,07,13,02,04,18.90
2014,07,13,02,05,18.90
2014,07,13,02,06,18.90
2014,07,13,02,07,18.90
2014,07,13,02,08,18.90
2014,07,13,02,09,18.90
2014,07,13,02,10,18.90
2014,07,13,02,11,18.90
2014,07,13,02,12,18.80
2014,07,13,02,13,18.80
2014,07,13,02,14,18.80
2014,07,13,02,15,18.80
2014,07,13,02,16,18.80
2014,07,13,02,17,18.80
2014,07,13,02,18,18.80
2014,07,13,02,19,18.80
2014,07,13,02,20,18.80
2014,07,13,02,21,18.80
2014,07,13,02,22,18.70
2014,07,13,02,23,18.70
2014,07,13,02,24,18.70
2014,07,13,02,25,18.70
2014,07,13,02,26,18.70
2014,07,13,02,27,18.70
2014,07,13,02,28,18.70
2014,07,13,02,29,18.70
2014,07,13,02,30,18.70
2014,07,13,02,31,18.70
2014,07,13,02,32,18.70
2014,07,13,02,33,18.70
2014,07,13,02,34,18.70
2014,07,13,02,35,18.70
2014,07,13,02,36,18.70
2014,07,13,02,37,18.70
2014,07,13,02,38,18.70
2014,07,13,02,39,18.70
2014,07,13,02,40,18.70
2014,07,13,02,41,18.60
2014,07,13,02,42,18.60
2014,07,13,02,43,18.60
2014,07,13,02,44,18.60
2014,07,13,02,45,18.60
2014,07,13,02,46,18.50
2014,07,13,02,47,18.50
2014,07,13,02,48,18.50
2014,07,13,02,49,18.50
2014,07,13,02,50,18.50
2014,07,13,02,51,18.40
2014,07,13,02,52,18.40
2014,07,13,02,53,18.40
2014,07,13,02,54,18.40
2014,07,13,02,55,18.40
2014,07,13,02,56,18.40
2014,07,13,02,57,18.40
2014,07,13,02,58,18.40
2014,07,13,02,59,18.40
2014,07,13,03,00,18.40
2014,07,13,03,01,18.30
2014,07,13,03,02,18.30
2014,07,13,03,03,18.30
2014,07,13,03,04,18.30
2014,07,13,03,05,18.30
2014,07,13,03,06,18.30
2014,07,13,03,07,18.30
2014,07,13,03,08,18.30
2014,07,13,03,09,18.30
2014,07,13,03,10,18.30
2014,07,13,03,11,18.30
2014,07,13,03,12,18.30
2014,07,13,03,13,18.20
2014,07,13,03,14,18.20
2014,07,13,03,15,18.20
2014,07,13,03,16,18.30
2014,07,13,03,17,18.30
2014,07,13,03,18,18.30
2014,07,13,03,19,18.30
2014,07,13,03,20,18.30
2014,07,13,03,21,18.30
2014,07,13,03,22,18.30
2014,07,13,03,23,18.30
2014,07,13,03,24,18.30
2014,07,13,03,25,18.40
2014,07,13,03,26,18.40
2014,07,13,03,27,18.40
2014,07,13,03,28,18.40
2014,07,13,03,29,18.40
2014,07,13,03,30,18.40
2014,07,13,03,31,18.40
2014,07,13,03,32,18.40
2014,07,13,03,33,18.40
2014,07,13,03,34,18.40
2014,07,13,03,35,18.40
2014,07,13,03,36,18.40
2014,07,13,03,37,18.30
2014,07,13,03,38,18.30
2014,07,13,03,39,18.30
2014,07,13,03,40,18.30
2014,07,13,03,41,18.20
2014,07,13,03,42,18.20
2014,07,13,03,43,18.20
2014,07,13,03,44,18.10
2014,07,13,03,45,18.10
2014,07,13,03,46,18.10
2014,07,13,03,47,18.10
2014,07,13,03,48,18.10
2014,07,13,03,49,18.10
2014,07,13,03,50,18.10
2014,07,13,03,51,18.10
2014,07,13,03,52,18.10
2014,07,13,03,53,18.10
2014,07,13,03,54,18.10
2014,07,13,03,55,18.10
2014,07,13,03,56,18.10
2014,07,13,03,57,18.10
2014,07,13,03,58,18.10
2014,07,13,03,59,18.10
2014,07,13,04,00,18.10
2014,07,13,04,01,18.10
2014,07,13,04,02,18.10
2014,07,13,04,03,18.10
2014,07,13,04,04,18.00
2014,07,13,04,05,18.00
2014,07,13,04,06,18.00
2014,07,13,04,07,18.00
2014,07,13,04,08,17.90
2014,07,13,04,09,17.90
2014,07,13,04,10,17.80
2014,07,13,04,11,17.80
2014,07,13,04,12,17.80
2014,07,13,04,13,17.70
2014,07,13,04,14,17.70
2014,07,13,04,15,17.70
2014,07,13,04,16,17.70
2014,07,13,04,17,17.70
2014,07,13,04,18,17.70
2014,07,13,04,19,17.70
2014,07,13,04,20,17.60
2014,07,13,04,21,17.60
2014,07,13,04,22,17.60
2014,07,13,04,23,17.60
2014,07,13,04,24,17.60
2014,07,13,04,25,17.60
2014,07,13,04,26,17.60
2014,07,13,04,27,17.60
2014,07,13,04,28,17.60
2014,07,13,04,29,17.60
2014,07,13,04,30,17.50
2014,07,13,04,31,17.50
2014,07,13,04,32,17.50
2014,07,13,04,33,17.50
2014,07,13,04,34,17.50
2014,07,13,04,35,17.40
2014,07,13,04,36,17.40
2014,07,13,04,37,17.40
2014,07,13,04,38,17.40
2014,07,13,04,39,17.40
2014,07,13,04,40,17.40
2014,07,13,04,41,17.40
2014,07,13,04,42,17.40
2014,07,13,04,43,17.30
2014,07,13,04,44,17.30
2014,07,13,04,45,17.30
2014,07,13,04,46,17.30
2014,07,13,04,47,17.30
2014,07,13,04,48,17.30
2014,07,13,04,49,17.30
2014,07,13,04,50,17.30
2014,07,13,04,51,17.30
2014,07,13,04,52,17.20
2014,07,13,04,53,17.20
2014,07,13,04,54,17.20
2014,07,13,04,55,17.20
2014,07,13,04,56,17.20
2014,07,13,04,57,17.20
2014,07,13,04,58,17.20
2014,07,13,04,59,17.20
2014,07,13,05,00,17.20
2014,07,13,05,01,17.20
2014,07,13,05,02,17.20
2014,07,13,05,03,17.20
2014,07,13,05,04,17.20
2014,07,13,05,05,17.10
2014,07,13,05,06,17.10
2014,07,13,05,07,17.10
2014,07,13,05,08,17.10
2014,07,13,05,09,17.10
2014,07,13,05,10,17.10
2014,07,13,05,11,17.10
2014,07,13,05,12,17.00
2014,07,13,05,13,17.00
2014,07,13,05,14,17.00
2014,07,13,05,15,17.00
2014,07,13,05,16,17.00
2014,07,13,05,17,17.00
2014,07,13,05,18,17.00
2014,07,13,05,19,17.00
2014,07,13,05,20,17.00
2014,07,13,05,21,17.00
2014,07,13,05,22,17.00
2014,07,13,05,23,17.00
2014,07,13,05,24,17.00
2014,07,13,05,25,16.90
2014,07,13,05,26,16.90
2014,07,13,05,27,16.90
2014,07,13,05,28,16.90
2014,07,13,05,29,16.90
2014,07,13,05,30,16.90
2014,07,13,05,31,16.90
2014,07,13,05,32,16.90
2014,07,13,05,33,16.90
2014,07,13,05,34,16.90
2014,07,13,05,35,16.90
2014,07,13,05,36,16.90
2014,07,13,05,37,16.90
2014,07,13,05,38,16.90
2014,07,13,05,39,16.90
2014,07,13,05,40,16.90
2014,07,13,05,41,16.90
2014,07,13,05,42,16.90
2014,07,13,05,43,16.90
2014,07,13,05,44,16.90
2014,07,13,05,45,16.90
2014,07,13,05,46,16.90
2014,07,13,05,47,16.90
2014,07,13,05,48,16.90
2014,07,13,05,49,16.90
2014,07,13,05,50,16.90
2014,07,13,05,51,16.90
2014,07,13,05,52,16.90
2014,07,13,05,53,16.90
2014,07,13,05,54,16.90
2014,07,13,05,55,16.90
2014,07,13,05,56,16.90
2014,07,13,05,57,16.90
2014,07,13,05,58,16.90
2014,07,13,05,59,16.90
2014,07,13,06,00,16.90
2014,07,13,06,01,16.90
2014,07,13,06,02,16.90
2014,07,13,06,03,16.90
2014,07,13,06,04,16.90
2014,07,13,06,05,16.90
2014,07,13,06,06,16.90
2014,07,13,06,07,16.90
2014,07,13,06,08,17.00
2014,07,13,06,09,17.00
2014,07,13,06,10,17.00
2014,07,13,06,11,17.10
2014,07,13,06,12,17.10
2014,07,13,06,13,17.10
2014,07,13,06,14,17.10
2014,07,13,06,15,17.20
2014,07,13,06,16,17.20
2014,07,13,06,17,17.20
2014,07,13,06,18,17.20
2014,07,13,06,19,17.20
2014,07,13,06,20,17.20
2014,07,13,06,21,17.30
2014,07,13,06,22,17.30
2014,07,13,06,23,17.30
2014,07,13,06,24,17.30
2014,07,13,06,25,17.40
2014,07,13,06,26,17.40
2014,07,13,06,27,17.40
2014,07,13,06,28,17.40
2014,07,13,06,29,17.50
2014,07,13,06,30,17.60
2014,07,13,06,31,17.60
2014,07,13,06,32,17.60
2014,07,13,06,33,17.70
2014,07,13,06,34,17.70
2014,07,13,06,35,17.70
2014,07,13,06,36,17.80
2014,07,13,06,37,17.80
2014,07,13,06,38,17.80
2014,07,13,06,39,17.90
2014,07,13,06,40,17.90
2014,07,13,06,41,18.00
2014,07,13,06,42,18.10
2014,07,13,06,43,18.10
2014,07,13,06,44,18.20
2014,07,13,06,45,18.30
2014,07,13,06,46,18.30
2014,07,13,06,47,18.40
2014,07,13,06,48,18.50
2014,07,13,06,49,18.60
2014,07,13,06,50,18.60
2014,07,13,06,51,18.70
2014,07,13,06,52,18.70
2014,07,13,06,53,18.80
2014,07,13,06,54,18.90
2014,07,13,06,55,18.90
2014,07,13,06,56,19.00
2014,07,13,06,57,19.10
2014,07,13,06,58,19.10
2014,07,13,06,59,19.20
2014,07,13,07,00,19.20
2014,07,13,07,01,19.30
2014,07,13,07,02,19.30
2014,07,13,07,03,19.40
2014,07,13,07,04,19.40
2014,07,13,07,05,19.50
2014,07,13,07,06,19.50
2014,07,13,07,07,19.60
2014,07,13,07,08,19.70
2014,07,13,07,09,19.80
2014,07,13,07,10,19.90
2014,07,13,07,11,20.10
2014,07,13,07,12,20.20
2014,07,13,07,13,20.40
2014,07,13,07,14,20.50
2014,07,13,07,15,20.70
2014,07,13,07,16,20.80
2014,07,13,07,17,20.90
2014,07,13,07,18,21.00
2014,07,13,07,19,21.10
2014,07,13,07,20,21.20
2014,07,13,07,21,21.30
2014,07,13,07,22,21.30
2014,07,13,07,23,21.40
2014,07,13,07,24,21.50
2014,07,13,07,25,21.50
2014,07,13,07,26,21.50
2014,07,13,07,27,21.60
2014,07,13,07,28,21.60
2014,07,13,07,29,21.60
2014,07,13,07,30,21.60
2014,07,13,07,31,21.70
2014,07,13,07,32,21.70
2014,07,13,07,33,21.70
2014,07,13,07,34,21.80
2014,07,13,07,35,21.80
2014,07,13,07,36,21.80
2014,07,13,07,37,21.80
2014,07,13,07,38,21.70
2014,07,13,07,39,21.70
2014,07,13,07,40,21.60
2014,07,13,07,41,21.60
2014,07,13,07,42,21.60
2014,07,13,07,43,21.60
2014,07,13,07,44,21.60
2014,07,13,07,45,21.60
2014,07,13,07,46,21.60
2014,07,13,07,47,21.60
2014,07,13,07,48,21.70
2014,07,13,07,49,21.70
2014,07,13,07,50,21.70
2014,07,13,07,51,21.70
2014,07,13,07,52,21.70
2014,07,13,07,53,21.70
2014,07,13,07,54,21.70
2014,07,13,07,55,21.70
2014,07,13,07,56,21.70
2014,07,13,07,57,21.70
2014,07,13,07,58,21.70
2014,07,13,07,59,21.70
2014,07,13,08,00,21.70
2014,07,13,08,01,21.60
2014,07,13,08,02,21.60
2014,07,13,08,03,21.60
2014,07,13,08,04,21.60
2014,07,13,08,05,21.60
2014,07,13,08,06,21.60
2014,07,13,08,07,21.70
2014,07,13,08,08,21.70
2014,07,13,08,09,21.70
2014,07,13,08,10,21.80
2014,07,13,08,11,21.80
2014,07,13,08,12,21.80
2014,07,13,08,13,21.90
2014,07,13,08,14,21.90
2014,07,13,08,15,22.00
2014,07,13,08,16,22.00
2014,07,13,08,17,22.10
2014,07,13,08,18,22.20
2014,07,13,08,19,22.30
2014,07,13,08,20,22.30
2014,07,13,08,21,22.30
2014,07,13,08,22,22.30
2014,07,13,08,23,22.30
2014,07,13,08,24,22.30
2014,07,13,08,25,22.30
2014,07,13,08,26,22.20
2014,07,13,08,27,22.30
2014,07,13,08,28,22.30
2014,07,13,08,29,22.40
2014,07,13,08,30,22.40
2014,07,13,08,31,22.50
2014,07,13,08,32,22.60
2014,07,13,08,33,22.70
2014,07,13,08,34,22.80
2014,07,13,08,35,22.90
2014,07,13,08,36,23.00
2014,07,13,08,37,23.00
2014,07,13,08,38,23.00
2014,07,13,08,39,23.10
2014,07,13,08,40,23.10
2014,07,13,08,41,23.10
2014,07,13,08,42,23.10
2014,07,13,08,43,23.10
2014,07,13,08,44,23.10
2014,07,13,08,45,23.10
2014,07,13,08,46,23.10
2014,07,13,08,47,23.00
2014,07,13,08,48,22.90
2014,07,13,08,49,22.90
2014,07,13,08,50,22.90
2014,07,13,08,51,23.00
2014,07,13,08,52,23.10
2014,07,13,08,53,23.20
2014,07,13,08,54,23.20
2014,07,13,08,55,23.20
2014,07,13,08,56,23.20
2014,07,13,08,57,23.10
2014,07,13,08,58,23.00
2014,07,13,08,59,23.00
2014,07,13,09,00,23.00
2014,07,13,09,01,23.00
2014,07,13,09,02,23.00
2014,07,13,09,03,23.00
2014,07,13,09,04,23.10
2014,07,13,09,05,23.10
2014,07,13,09,06,23.20
2014,07,13,09,07,23.30
2014,07,13,09,08,23.30
2014,07,13,09,09,23.40
2014,07,13,09,10,23.40
2014,07,13,09,11,23.40
2014,07,13,09,12,23.40
2014,07,13,09,13,23.40
2014,07,13,09,14,23.40
2014,07,13,09,15,23.40
2014,07,13,09,16,23.40
2014,07,13,09,17,23.50
2014,07,13,09,18,23.60
2014,07,13,09,19,23.70
2014,07,13,09,20,23.80
2014,07,13,09,21,24.00
2014,07,13,09,22,24.10
2014,07,13,09,23,24.10
2014,07,13,09,24,24.20
2014,07,13,09,25,24.30
2014,07,13,09,26,24.30
2014,07,13,09,27,24.30
2014,07,13,09,28,24.30
2014,07,13,09,29,24.30
2014,07,13,09,30,24.30
2014,07,13,09,31,24.20
2014,07,13,09,32,24.10
2014,07,13,09,33,24.10
2014,07,13,09,34,24.10
2014,07,13,09,35,24.10
2014,07,13,09,36,24.10
2014,07,13,09,37,24.10
2014,07,13,09,38,24.10
2014,07,13,09,39,24.10
2014,07,13,09,40,24.20
2014,07,13,09,41,24.30
2014,07,13,09,42,24.50
2014,07,13,09,43,24.60
2014,07,13,09,44,24.70
2014,07,13,09,45,24.70
2014,07,13,09,46,24.80
2014,07,13,09,47,24.80
2014,07,13,09,48,24.90
2014,07,13,09,49,24.90
2014,07,13,09,50,24.90
2014,07,13,09,51,24.90
2014,07,13,09,52,24.80
2014,07,13,09,53,24.80
2014,07,13,09,54,24.80
2014,07,13,09,55,24.80
2014,07,13,09,56,24.70
2014,07,13,09,57,24.70
2014,07,13,09,58,24.70
2014,07,13,09,59,24.80
2014,07,13,10,00,24.80
2014,07,13,10,01,24.80
2014,07,13,10,02,24.90
2014,07,13,10,03,24.90
2014,07,13,10,04,25.00
2014,07,13,10,05,24.90
2014,07,13,10,06,24.90
2014,07,13,10,07,24.90
2014,07,13,10,08,24.90
2014,07,13,10,09,25.00
2014,07,13,10,10,25.00
2014,07,13,10,11,25.20
2014,07,13,10,12,25.20
2014,07,13,10,13,25.30
2014,07,13,10,14,25.30
2014,07,13,10,15,25.20
2014,07,13,10,16,25.20
2014,07,13,10,17,25.20
2014,07,13,10,18,25.20
2014,07,13,10,19,25.20
2014,07,13,10,20,25.20
2014,07,13,10,21,25.20
2014,07,13,10,22,25.20
2014,07,13,10,23,25.20
2014,07,13,10,24,25.20
2014,07,13,10,25,25.20
2014,07,13,10,26,25.30
2014,07,13,10,27,25.40
2014,07,13,10,28,25.40
2014,07,13,10,29,25.40
2014,07,13,10,30,25.40
2014,07,13,10,31,25.40
2014,07,13,10,32,25.50
2014,07,13,10,33,25.60
2014,07,13,10,34,25.70
2014,07,13,10,35,25.90
2014,07,13,10,36,26.00
2014,07,13,10,37,26.10
2014,07,13,10,38,26.20
2014,07,13,10,39,26.20
2014,07,13,10,40,26.30
2014,07,13,10,41,26.40
2014,07,13,10,42,26.40
2014,07,13,10,43,26.30
2014,07,13,10,44,26.30
2014,07,13,10,45,26.30
2014,07,13,10,46,26.20
2014,07,13,10,47,26.10
2014,07,13,10,48,26.00
2014,07,13,10,49,25.90
2014,07,13,10,50,25.90
2014,07,13,10,51,25.90
2014,07,13,10,52,25.90
2014,07,13,10,53,25.90
2014,07,13,10,54,25.90
2014,07,13,10,55,25.90
2014,07,13,10,56,25.90
2014,07,13,10,57,26.00
2014,07,13,10,58,26.10
2014,07,13,10,59,26.00
2014,07,13,11,00,26.00
2014,07,13,11,01,25.90
2014,07,13,11,02,25.80
2014,07,13,11,03,25.80
2014,07,13,11,04,25.80
2014,07,13,11,05,25.90
2014,07,13,11,06,26.00
2014,07,13,11,07,26.10
2014,07,13,11,08,26.20
2014,07,13,11,09,26.30
2014,07,13,11,10,26.50
2014,07,13,11,11,26.60
2014,07,13,11,12,26.70
2014,07,13,11,13,26.80
2014,07,13,11,14,26.80
2014,07,13,11,15,26.90
2014,07,13,11,16,26.90
2014,07,13,11,17,27.00
2014,07,13,11,18,27.10
2014,07,13,11,19,27.10
2014,07,13,11,20,27.10
2014,07,13,11,21,27.10
2014,07,13,11,22,27.20
2014,07,13,11,23,27.20
2014,07,13,11,24,27.20
2014,07,13,11,25,27.10
2014,07,13,11,26,27.10
2014,07,13,11,27,27.10
2014,07,13,11,28,27.20
2014,07,13,11,29,27.20
2014,07,13,11,30,27.20
2014,07,13,11,31,27.10
2014,07,13,11,32,27.10
2014,07,13,11,33,27.10
2014,07,13,11,34,27.10
2014,07,13,11,35,27.10
2014,07,13,11,36,27.10
2014,07,13,11,37,27.10
2014,07,13,11,38,27.10
2014,07,13,11,39,27.00
2014,07,13,11,40,27.00
2014,07,13,11,41,27.00
2014,07,13,11,42,26.90
2014,07,13,11,43,26.80
2014,07,13,11,44,26.80
2014,07,13,11,45,26.70
2014,07,13,11,46,26.70
2014,07,13,11,47,26.70
2014,07,13,11,48,26.80
2014,07,13,11,49,27.00
2014,07,13,11,50,27.10
2014,07,13,11,51,27.20
2014,07,13,11,52,27.30
2014,07,13,11,53,27.40
2014,07,13,11,54,27.50
2014,07,13,11,55,27.60
2014,07,13,11,56,27.80
2014,07,13,11,57,27.90
2014,07,13,11,58,28.00
2014,07,13,11,59,28.10
2014,07,13,12,00,28.20
2014,07,13,12,01,28.30
2014,07,13,12,02,28.30
2014,07,13,12,03,28.40
2014,07,13,12,04,28.40
2014,07,13,12,05,28.40
2014,07,13,12,06,28.40
2014,07,13,12,07,28.30
2014,07,13,12,08,28.20
2014,07,13,12,09,28.10
2014,07,13,12,10,28.10
2014,07,13,12,11,28.10
2014,07,13,12,12,28.10
2014,07,13,12,13,28.20
2014,07,13,12,14,28.30
2014,07,13,12,15,28.40
2014,07,13,12,16,28.50
2014,07,13,12,17,28.70
2014,07,13,12,18,28.90
2014,07,13,12,19,29.00
2014,07,13,12,20,29.20
2014,07,13,12,21,29.30
2014,07,13,12,22,29.40
2014,07,13,12,23,29.40
2014,07,13,12,24,29.50
2014,07,13,12,25,29.50
2014,07,13,12,26,29.60
2014,07,13,12,27,29.60
2014,07,13,12,28,29.60
2014,07,13,12,29,29.60
2014,07,13,12,30,29.60
2014,07,13,12,31,29.60
2014,07,13,12,32,29.60
2014,07,13,12,33,29.60
2014,07,13,12,34,29.60
2014,07,13,12,35,29.60
2014,07,13,12,36,29.70
2014,07,13,12,37,29.60
2014,07,13,12,38,29.60
2014,07,13,12,39,29.50
2014,07,13,12,40,29.50
2014,07,13,12,41,29.40
2014,07,13,12,42,29.40
2014,07,13,12,43,29.40
2014,07,13,12,44,29.40
2014,07,13,12,45,29.40
2014,07,13,12,46,29.40
2014,07,13,12,47,29.50
2014,07,13,12,48,29.50
2014,07,13,12,49,29.50
2014,07,13,12,50,29.50
2014,07,13,12,51,29.50
2014,07,13,12,52,29.50
2014,07,13,12,53,29.40
2014,07,13,12,54,29.40
2014,07,13,12,55,29.40
2014,07,13,12,56,29.40
2014,07,13,12,57,29.50
2014,07,13,12,58,29.50
2014,07,13,12,59,29.60
2014,07,13,13,00,29.60
2014,07,13,13,01,29.70
2014,07,13,13,02,29.80
2014,07,13,13,03,29.80
2014,07,13,13,04,29.80
2014,07,13,13,05,29.70
2014,07,13,13,06,29.70
2014,07,13,13,07,29.70
2014,07,13,13,08,29.70
2014,07,13,13,09,29.60
2014,07,13,13,10,29.60
2014,07,13,13,11,29.70
2014,07,13,13,12,29.70
2014,07,13,13,13,29.80
2014,07,13,13,14,29.80
2014,07,13,13,15,29.90
2014,07,13,13,16,29.90
2014,07,13,13,17,29.90
2014,07,13,13,18,29.90
2014,07,13,13,19,30.00
2014,07,13,13,20,30.00
2014,07,13,13,21,30.10
2014,07,13,13,22,30.10
2014,07,13,13,23,30.10
2014,07,13,13,24,30.10
2014,07,13,13,25,30.20
2014,07,13,13,26,30.20
2014,07,13,13,27,30.30
2014,07,13,13,28,30.30
2014,07,13,13,29,30.40
2014,07,13,13,30,30.50
2014,07,13,13,31,30.60
2014,07,13,13,32,30.70
2014,07,13,13,33,30.80
2014,07,13,13,34,30.80
2014,07,13,13,35,30.90
2014,07,13,13,36,30.70
2014,07,13,13,37,30.60
2014,07,13,13,38,30.30
2014,07,13,13,39,30.10
2014,07,13,13,40,29.80
2014,07,13,13,41,29.70
2014,07,13,13,42,29.60
2014,07,13,13,43,29.50
2014,07,13,13,44,29.40
2014,07,13,13,45,29.30
2014,07,13,13,46,29.20
2014,07,13,13,47,29.20
2014,07,13,13,48,29.20
2014,07,13,13,49,29.20
2014,07,13,13,50,29.30
2014,07,13,13,51,29.30
2014,07,13,13,52,29.40
2014,07,13,13,53,29.40
2014,07,13,13,54,29.50
2014,07,13,13,55,29.50
2014,07,13,13,56,29.60
2014,07,13,13,57,29.70
2014,07,13,13,58,29.80
2014,07,13,13,59,29.90
2014,07,13,14,00,30.00
2014,07,13,14,01,30.00
2014,07,13,14,02,30.00
2014,07,13,14,03,29.90
2014,07,13,14,04,29.70
2014,07,13,14,05,29.50
2014,07,13,14,06,29.40
2014,07,13,14,07,29.40
2014,07,13,14,08,29.40
2014,07,13,14,09,29.40
2014,07,13,14,10,29.40
2014,07,13,14,11,29.30
2014,07,13,14,12,29.20
2014,07,13,14,13,29.20
2014,07,13,14,14,29.10
2014,07,13,14,15,29.00
2014,07,13,14,16,28.90
2014,07,13,14,17,28.80
2014,07,13,14,18,28.90
2014,07,13,14,19,28.90
2014,07,13,14,20,29.10
2014,07,13,14,21,29.20
2014,07,13,14,22,29.30
2014,07,13,14,23,29.40
2014,07,13,14,24,29.40
2014,07,13,14,25,29.40
2014,07,13,14,26,29.50
2014,07,13,14,27,29.50
2014,07,13,14,28,29.40
2014,07,13,14,29,29.30
2014,07,13,14,30,29.30
2014,07,13,14,31,29.30
2014,07,13,14,32,29.30
2014,07,13,14,33,29.40
2014,07,13,14,34,29.50
2014,07,13,14,35,29.50
2014,07,13,14,36,29.60
2014,07,13,14,37,29.60
2014,07,13,14,38,29.60
2014,07,13,14,39,29.60
2014,07,13,14,40,29.60
2014,07,13,14,41,29.60
2014,07,13,14,42,29.70
2014,07,13,14,43,29.80
2014,07,13,14,44,29.80
2014,07,13,14,45,29.80
2014,07,13,14,46,29.70
2014,07,13,14,47,29.70
2014,07,13,14,48,29.70
2014,07,13,14,49,29.70
2014,07,13,14,50,29.70
2014,07,13,14,51,29.80
2014,07,13,14,52,29.90
2014,07,13,14,53,30.00
2014,07,13,14,54,30.10
2014,07,13,14,55,30.10
2014,07,13,14,56,30.10
2014,07,13,14,57,30.20
2014,07,13,14,58,30.30
2014,07,13,14,59,30.30
2014,07,13,15,00,30.40
2014,07,13,15,01,30.40
2014,07,13,15,02,30.50
2014,07,13,15,03,30.50
2014,07,13,15,04,30.50
2014,07,13,15,05,30.50
2014,07,13,15,06,30.40
2014,07,13,15,07,30.50
2014,07,13,15,08,30.50
2014,07,13,15,09,30.60
2014,07,13,15,10,30.70
2014,07,13,15,11,30.70
2014,07,13,15,12,30.70
2014,07,13,15,13,30.70
2014,07,13,15,14,30.80
2014,07,13,15,15,30.90
2014,07,13,15,16,30.90
2014,07,13,15,17,31.00
2014,07,13,15,18,31.00
2014,07,13,15,19,31.10
2014,07,13,15,20,31.30
2014,07,13,15,21,31.50
2014,07,13,15,22,31.60
2014,07,13,15,23,31.80
2014,07,13,15,24,32.00
2014,07,13,15,25,32.20
2014,07,13,15,26,32.30
2014,07,13,15,27,32.50
2014,07,13,15,28,32.60
2014,07,13,15,29,32.80
2014,07,13,15,30,32.90
2014,07,13,15,31,33.10
2014,07,13,15,32,33.20
2014,07,13,15,33,33.40
2014,07,13,15,34,33.50
2014,07,13,15,35,33.60
2014,07,13,15,36,33.70
2014,07,13,15,37,33.80
2014,07,13,15,38,33.90
2014,07,13,15,39,33.90
2014,07,13,15,40,33.90
2014,07,13,15,41,34.00
2014,07,13,15,42,34.10
2014,07,13,15,43,34.10
2014,07,13,15,44,34.20
2014,07,13,15,45,34.20
2014,07,13,15,46,34.30
2014,07,13,15,47,34.30
2014,07,13,15,48,34.30
2014,07,13,15,49,34.40
2014,07,13,15,50,34.40
2014,07,13,15,51,34.40
2014,07,13,15,52,34.40
2014,07,13,15,53,34.20
2014,07,13,15,54,34.10
2014,07,13,15,55,34.00
2014,07,13,15,56,34.00
2014,07,13,15,57,33.90
2014,07,13,15,58,34.00
2014,07,13,15,59,34.10
2014,07,13,16,00,34.10
2014,07,13,16,01,34.20
2014,07,13,16,02,34.20
2014,07,13,16,03,34.30
2014,07,13,16,04,34.30
2014,07,13,16,05,34.20
2014,07,13,16,06,34.10
2014,07,13,16,07,34.00
2014,07,13,16,08,33.90
2014,07,13,16,09,33.90
2014,07,13,16,10,33.80
2014,07,13,16,11,33.80
2014,07,13,16,12,33.80
2014,07,13,16,13,33.80
2014,07,13,16,14,33.80
2014,07,13,16,15,33.80
2014,07,13,16,16,33.80
2014,07,13,16,17,33.80
2014,07,13,16,18,33.80
2014,07,13,16,19,33.80
2014,07,13,16,20,33.80
2014,07,13,16,21,33.80
2014,07,13,16,22,33.80
2014,07,13,16,23,33.80
2014,07,13,16,24,33.80
2014,07,13,16,25,33.80
2014,07,13,16,26,33.80
2014,07,13,16,27,33.90
2014,07,13,16,28,33.90
2014,07,13,16,29,33.80
2014,07,13,16,30,33.80
2014,07,13,16,31,33.90
2014,07,13,16,32,33.90
2014,07,13,16,33,33.90
2014,07,13,16,34,33.90
2014,07,13,16,35,33.80
2014,07,13,16,36,33.80
2014,07,13,16,37,33.90
2014,07,13,16,38,34.00
2014,07,13,16,39,34.00
2014,07,13,16,40,34.10
2014,07,13,16,41,34.10
2014,07,13,16,42,34.10
2014,07,13,16,43,34.10
2014,07,13,16,44,34.10
2014,07,13,16,45,34.10
2014,07,13,16,46,34.10
2014,07,13,16,47,34.10
2014,07,13,16,48,34.10
2014,07,13,16,49,34.10
2014,07,13,16,50,34.20
2014,07,13,16,51,34.20
2014,07,13,16,52,34.20
2014,07,13,16,53,34.20
2014,07,13,16,54,34.20
2014,07,13,16,55,34.30
2014,07,13,16,56,34.30
2014,07,13,16,57,34.30
2014,07,13,16,58,34.40
2014,07,13,16,59,34.40
2014,07,13,17,00,34.40
2014,07,13,17,01,34.50
2014,07,13,17,02,34.50
2014,07,13,17,03,34.60
2014,07,13,17,04,34.70
2014,07,13,17,05,34.70
2014,07,13,17,06,34.80
2014,07,13,17,07,34.80
2014,07,13,17,08,34.70
2014,07,13,17,09,34.60
2014,07,13,17,10,34.60
2014,07,13,17,11,34.60
2014,07,13,17,12,34.60
2014,07,13,17,13,34.60
2014,07,13,17,14,34.60
2014,07,13,17,15,34.60
2014,07,13,17,16,34.60
2014,07,13,17,17,34.60
2014,07,13,17,18,34.60
2014,07,13,17,19,34.60